Salt Lake City, UT

6:45 AM MDT on May 27, 2018 (GMT -0600)
Salt Lake City International

Weather History for KSLC - February, 2013

Change the Weather History Date:

Friday, February 1, 2013

  Actual Average Record
Temperature  
Mean Temperature 36 °F 31 °F  
Max Temperature 46 °F 39 °F 63 °F (2003)
Min Temperature 26 °F 22 °F -9 °F (1985)
Degree Days  
Heating Degree Days 29 34  
Month to date heating degree days 29 34  
Since 1 July heating degree days 3249 3428  
Cooling Degree Days 0 0  
Month to date cooling degree days 0 0  
Year to date cooling degree days 0 0  
Moisture  
Dew Point 27 °F    
Average Humidity 73    
Maximum Humidity 92    
Minimum Humidity 53    
Precipitation  
Precipitation 0.00 in 0.04 in 0.87 in (1886)
Month to date precipitation 0.00 0.04  
Year to date precipitation 1.52 1.29  
Snow  
Snow 0.00 in 0.40 in 10.90 in (1989)
Month to date snowfall 0.0 0.4  
Since 1 July snowfall 52.4 35.1  
Snow Depth 8.00 in    
Sea Level Pressure  
Sea Level Pressure 30.34 in    
Wind  
Wind Speed 5 mph (ESE)    
Max Wind Speed 12 mph    
Max Gust Speed 13 mph    
Visibility 9 miles    
Events      
T = Trace of Precipitation, MM = Missing Value Source: NWS Daily Summary

Daily Weather History Graph

Daily Weather History Graph

Search for Another Location

Airport or City:

Astronomy

Feb. 01, 2013 Rise Set
Actual Time 7:37 AM MST 5:45 PM MST
Civil Twilight 7:08 AM MST 6:14 PM MST
Nautical Twilight 6:36 AM MST 6:47 PM MST
Astronomical Twilight 6:03 AM MST 7:19 PM MST
Moon No Moon Rise 10:10 AM MST (2/1)
Length of Visible Light 11h 06m
Length of Day
10h 08m
Waning Gibbous, 69% of the Moon is Illuminated
Feb 1
Waning Gibbous
Feb 3
Last Quarter
Feb 10
New
Feb 17
First Quarter
Feb 25
Full

Hourly Weather History & Observations

Time (MST) Temp. Windchill Dew Point Humidity Pressure Visibility Wind Dir Wind Speed Gust Speed Precip Events Conditions
12:53 AM 36.0 °F 29.6 °F 28.0 °F 73% 30.27 in 10.0 mi SE 8.1 mph - N/A   Mostly Cloudy
1:53 AM 35.1 °F 30.1 °F 28.0 °F 76% 30.27 in 10.0 mi SSE 5.8 mph - N/A   Mostly Cloudy
2:53 AM 34.0 °F 28.0 °F 28.0 °F 79% 30.28 in 10.0 mi ESE 6.9 mph - N/A   Mostly Cloudy
3:53 AM 33.1 °F 26.9 °F 27.0 °F 78% 30.27 in 10.0 mi ESE 6.9 mph - N/A   Scattered Clouds
4:53 AM 30.9 °F 24.3 °F 26.1 °F 82% 30.26 in 10.0 mi ESE 6.9 mph - N/A   Partly Cloudy
5:53 AM 32.0 °F 26.4 °F 26.1 °F 79% 30.28 in 10.0 mi SE 5.8 mph - N/A   Mostly Cloudy
6:53 AM 32.0 °F 25.6 °F 26.1 °F 79% 30.28 in 10.0 mi ESE 6.9 mph - N/A   Mostly Cloudy
7:53 AM 32.0 °F 25.6 °F 26.1 °F 79% 30.30 in 10.0 mi SSE 6.9 mph - N/A   Mostly Cloudy
8:53 AM 33.1 °F 26.9 °F 26.1 °F 75% 30.28 in 10.0 mi ESE 6.9 mph - N/A   Mostly Cloudy
9:53 AM 35.1 °F 29.3 °F 27.0 °F 72% 30.32 in 10.0 mi SE 6.9 mph - N/A   Mostly Cloudy
10:53 AM 37.0 °F 34.5 °F 28.0 °F 70% 30.34 in 10.0 mi West 3.5 mph - N/A   Mostly Cloudy
11:53 AM 42.1 °F - 27.0 °F 55% 30.32 in 10.0 mi Calm Calm - N/A   Scattered Clouds
12:53 PM 41.0 °F 37.1 °F 28.9 °F 62% 30.32 in 10.0 mi North 5.8 mph - N/A   Partly Cloudy
1:53 PM 42.1 °F 38.4 °F 28.9 °F 60% 30.32 in 10.0 mi North 5.8 mph - N/A   Partly Cloudy
2:53 PM 39.9 °F 34.5 °F 30.0 °F 68% 30.32 in 10.0 mi North 8.1 mph - N/A   Partly Cloudy
3:53 PM 39.0 °F 32.8 °F 28.9 °F 67% 30.31 in 10.0 mi NNW 9.2 mph - N/A   Partly Cloudy
4:53 PM 39.0 °F 34.8 °F 28.9 °F 67% 30.35 in 9.0 mi WNW 5.8 mph - N/A   Partly Cloudy
5:53 PM 35.1 °F 32.2 °F 28.9 °F 78% 30.36 in 8.0 mi WNW 3.5 mph - N/A   Partly Cloudy
6:53 PM 32.0 °F - 27.0 °F 82% 30.40 in 10.0 mi Calm Calm - N/A   Clear
7:53 PM 30.9 °F - 26.1 °F 82% 30.42 in 10.0 mi Calm Calm - N/A   Clear
8:53 PM 28.9 °F - 26.1 °F 89% 30.43 in 8.0 mi Calm Calm - N/A   Clear
9:53 PM 28.9 °F - 26.1 °F 89% 30.44 in 6.0 mi Calm Calm - N/A   Clear
10:53 PM 28.0 °F 24.2 °F 26.1 °F 92% 30.45 in 5.0 mi SSE 3.5 mph - N/A   Clear
11:53 PM 26.1 °F 21.9 °F 24.1 °F 92% 30.47 in 6.0 mi East 3.5 mph - N/A   Clear